Wetterdaten: Dienstag, 18.03.2014
Datum Zeit Temp. Auen Feucht Auen Luftdruck Regen Richtung Richtung Windben
18.03.2014 00:00 4,4 C 89 % 1019,9 hPa 0,0 mm W 267 3,2 km/h (1 Bft)
18.03.2014 00:05 4,4 C 89 % 1019,9 hPa 0,0 mm W 267 1,6 km/h (1 Bft)
18.03.2014 00:10 4,2 C 89 % 1019,9 hPa 0,0 mm W 267 1,6 km/h (1 Bft)
18.03.2014 00:15 4,2 C 89 % 1019,9 hPa 0,0 mm W 267 3,2 km/h (1 Bft)
18.03.2014 00:20 4,2 C 89 % 1019,9 hPa 0,0 mm W 267 3,2 km/h (1 Bft)
18.03.2014 00:25 3,8 C 89 % 1019,8 hPa 0,0 mm W 267 1,6 km/h (1 Bft)
18.03.2014 00:30 3,8 C 89 % 1019,9 hPa 0,0 mm W 267 3,2 km/h (1 Bft)
18.03.2014 00:35 3,9 C 90 % 1020,0 hPa 0,0 mm W 267 3,2 km/h (1 Bft)
18.03.2014 00:40 4,1 C 90 % 1020,0 hPa 0,0 mm W 267 3,2 km/h (1 Bft)
18.03.2014 00:45 4,3 C 90 % 1020,0 hPa 0,0 mm W 267 1,6 km/h (1 Bft)
18.03.2014 00:50 4,3 C 90 % 1020,0 hPa 0,0 mm W 267 4,8 km/h (1 Bft)
18.03.2014 00:55 4,3 C 89 % 1019,9 hPa 0,0 mm W 267 4,8 km/h (1 Bft)
18.03.2014 01:00 3,9 C 89 % 1019,9 hPa 0,0 mm W 267 1,6 km/h (1 Bft)
18.03.2014 01:05 3,5 C 89 % 1019,9 hPa 0,0 mm W 268 3,2 km/h (1 Bft)
18.03.2014 01:10 3,8 C 90 % 1020,0 hPa 0,0 mm W 269 4,8 km/h (1 Bft)
18.03.2014 01:15 4,1 C 90 % 1020,0 hPa 0,0 mm W-SW 258 4,8 km/h (1 Bft)
18.03.2014 01:20 3,6 C 89 % 1020,0 hPa 0,0 mm W-SW 258 0,0 km/h (0 Bft)
18.03.2014 01:25 3,6 C 90 % 1020,0 hPa 0,0 mm W-SW 258 1,6 km/h (1 Bft)
18.03.2014 01:30 3,5 C 90 % 1019,9 hPa 0,0 mm W-SW 258 0,0 km/h (0 Bft)
18.03.2014 01:35 3,5 C 90 % 1019,9 hPa 0,0 mm W-SW 258 0,0 km/h (0 Bft)
18.03.2014 01:40 3,5 C 90 % 1019,9 hPa 0,0 mm W-SW 258 1,6 km/h (1 Bft)
18.03.2014 01:45 3,5 C 90 % 1019,9 hPa 0,0 mm W 259 3,2 km/h (1 Bft)
18.03.2014 01:50 3,5 C 90 % 1019,9 hPa 0,0 mm W 268 3,2 km/h (1 Bft)
18.03.2014 01:55 3,6 C 90 % 1019,9 hPa 0,0 mm W 268 4,8 km/h (1 Bft)
18.03.2014 02:00 3,7 C 90 % 1019,8 hPa 0,0 mm W 273 4,8 km/h (1 Bft)
18.03.2014 02:05 3,6 C 90 % 1019,8 hPa 0,0 mm W 273 1,6 km/h (1 Bft)
18.03.2014 02:10 3,2 C 90 % 1019,8 hPa 0,0 mm W 273 0,0 km/h (0 Bft)
18.03.2014 02:15 2,8 C 90 % 1019,7 hPa 0,0 mm W 273 0,0 km/h (0 Bft)
18.03.2014 02:20 2,7 C 91 % 1019,6 hPa 0,0 mm W 273 1,6 km/h (1 Bft)
18.03.2014 02:25 2,7 C 91 % 1019,6 hPa 0,0 mm W 273 1,6 km/h (1 Bft)
18.03.2014 02:30 2,8 C 91 % 1019,5 hPa 0,0 mm W 273 1,6 km/h (1 Bft)
18.03.2014 02:35 3,2 C 91 % 1019,5 hPa 0,0 mm W 273 3,2 km/h (1 Bft)
18.03.2014 02:40 3,4 C 91 % 1019,4 hPa 0,0 mm W 273 3,2 km/h (1 Bft)
18.03.2014 02:45 3,6 C 91 % 1019,4 hPa 0,0 mm W 273 3,2 km/h (1 Bft)
18.03.2014 02:50 3,5 C 91 % 1019,3 hPa 0,0 mm W 273 3,2 km/h (1 Bft)
18.03.2014 02:55 3,4 C 91 % 1019,4 hPa 0,0 mm W 273 3,2 km/h (1 Bft)
18.03.2014 03:00 3,1 C 91 % 1019,4 hPa 0,0 mm W 273 0,0 km/h (0 Bft)
18.03.2014 03:05 2,8 C 91 % 1019,3 hPa 0,0 mm W 273 1,6 km/h (1 Bft)
18.03.2014 03:10 3,1 C 91 % 1019,3 hPa 0,0 mm W 271 4,8 km/h (1 Bft)
18.03.2014 03:15 2,9 C 91 % 1019,3 hPa 0,0 mm W 271 3,2 km/h (1 Bft)
18.03.2014 03:20 2,6 C 91 % 1019,2 hPa 0,0 mm W 271 0,0 km/h (0 Bft)
18.03.2014 03:25 2,6 C 91 % 1019,2 hPa 0,0 mm W 271 0,0 km/h (0 Bft)
18.03.2014 03:30 2,6 C 91 % 1019,1 hPa 0,0 mm W 271 0,0 km/h (0 Bft)
18.03.2014 03:35 2,6 C 91 % 1019,1 hPa 0,0 mm W 271 0,0 km/h (0 Bft)
18.03.2014 03:40 2,4 C 91 % 1019,0 hPa 0,0 mm W 271 1,6 km/h (1 Bft)
18.03.2014 03:45 2,3 C 91 % 1019,0 hPa 0,0 mm W 271 0,0 km/h (0 Bft)
18.03.2014 03:50 2,4 C 91 % 1019,0 hPa 0,0 mm W 271 1,6 km/h (1 Bft)
18.03.2014 03:55 1,9 C 91 % 1019,0 hPa 0,0 mm W 271 0,0 km/h (0 Bft)
18.03.2014 04:00 1,7 C 91 % 1019,0 hPa 0,0 mm W 271 0,0 km/h (0 Bft)
18.03.2014 04:05 1,8 C 92 % 1018,9 hPa 0,0 mm W 271 0,0 km/h (0 Bft)
18.03.2014 04:10 2,3 C 92 % 1018,8 hPa 0,0 mm W 271 0,0 km/h (0 Bft)
18.03.2014 04:15 2,6 C 92 % 1018,7 hPa 0,0 mm W 271 0,0 km/h (0 Bft)
18.03.2014 04:20 2,7 C 92 % 1018,8 hPa 0,0 mm W 271 0,0 km/h (0 Bft)
18.03.2014 04:25 2,3 C 91 % 1018,7 hPa 0,0 mm W 271 0,0 km/h (0 Bft)
18.03.2014 04:30 2,0 C 91 % 1018,6 hPa 0,0 mm W 271 0,0 km/h (0 Bft)
18.03.2014 04:35 2,3 C 92 % 1018,7 hPa 0,0 mm W 271 1,6 km/h (1 Bft)
18.03.2014 04:40 2,6 C 92 % 1018,7 hPa 0,0 mm W 271 3,2 km/h (1 Bft)
18.03.2014 04:45 2,4 C 92 % 1018,7 hPa 0,0 mm W 271 0,0 km/h (0 Bft)
18.03.2014 04:50 2,5 C 92 % 1018,7 hPa 0,0 mm W 271 3,2 km/h (1 Bft)
18.03.2014 04:55 2,6 C 92 % 1018,7 hPa 0,0 mm W 271 3,2 km/h (1 Bft)
18.03.2014 05:00 2,3 C 92 % 1018,7 hPa 0,0 mm W 271 0,0 km/h (0 Bft)
18.03.2014 05:05 2,3 C 92 % 1018,6 hPa 0,0 mm W 271 0,0 km/h (0 Bft)
18.03.2014 05:10 2,0 C 92 % 1018,6 hPa 0,0 mm W 271 0,0 km/h (0 Bft)
18.03.2014 05:15 1,9 C 91 % 1018,5 hPa 0,0 mm W 271 0,0 km/h (0 Bft)
18.03.2014 05:20 2,0 C 92 % 1018,4 hPa 0,0 mm W 271 3,2 km/h (1 Bft)
18.03.2014 05:25 2,2 C 92 % 1018,4 hPa 0,0 mm W 271 3,2 km/h (1 Bft)
18.03.2014 05:30 1,7 C 91 % 1018,4 hPa 0,0 mm W 271 3,2 km/h (1 Bft)
18.03.2014 05:35 1,9 C 92 % 1018,3 hPa 0,0 mm W 271 3,2 km/h (1 Bft)
18.03.2014 05:40 2,2 C 92 % 1018,3 hPa 0,0 mm W 271 1,6 km/h (1 Bft)
18.03.2014 05:45 2,1 C 92 % 1018,3 hPa 0,0 mm W 271 0,0 km/h (0 Bft)
18.03.2014 05:50 1,8 C 92 % 1018,3 hPa 0,0 mm W 271 0,0 km/h (0 Bft)
18.03.2014 05:55 2,0 C 92 % 1018,3 hPa 0,0 mm W 271 3,2 km/h (1 Bft)
18.03.2014 06:00 1,5 C 91 % 1018,3 hPa 0,0 mm W 271 3,2 km/h (1 Bft)
18.03.2014 06:05 1,3 C 92 % 1018,3 hPa 0,0 mm W 271 0,0 km/h (0 Bft)
18.03.2014 06:10 1,7 C 92 % 1018,3 hPa 0,0 mm W 271 4,8 km/h (1 Bft)
18.03.2014 06:15 1,9 C 92 % 1018,3 hPa 0,0 mm W 271 1,6 km/h (1 Bft)
18.03.2014 06:20 1,9 C 92 % 1018,3 hPa 0,0 mm W 271 1,6 km/h (1 Bft)
18.03.2014 06:25 1,9 C 92 % 1018,3 hPa 0,0 mm W 271 0,0 km/h (0 Bft)
18.03.2014 06:30 2,1 C 92 % 1018,4 hPa 0,0 mm W 271 0,0 km/h (0 Bft)
18.03.2014 06:35 2,1 C 92 % 1018,3 hPa 0,0 mm W 271 3,2 km/h (1 Bft)
18.03.2014 06:40 2,2 C 92 % 1018,3 hPa 0,0 mm W 271 3,2 km/h (1 Bft)
18.03.2014 06:45 2,5 C 92 % 1018,4 hPa 0,0 mm W 271 3,2 km/h (1 Bft)
18.03.2014 06:50 2,5 C 92 % 1018,4 hPa 0,0 mm W 271 1,6 km/h (1 Bft)
18.03.2014 06:55 2,7 C 92 % 1018,5 hPa 0,0 mm W 271 3,2 km/h (1 Bft)
18.03.2014 07:00 3,2 C 92 % 1018,4 hPa 0,0 mm W 271 1,6 km/h (1 Bft)
18.03.2014 07:05 3,6 C 92 % 1018,5 hPa 0,0 mm W 272 4,8 km/h (1 Bft)
18.03.2014 07:10 4,1 C 91 % 1018,5 hPa 0,0 mm W 272 3,2 km/h (1 Bft)
18.03.2014 07:15 4,4 C 90 % 1018,5 hPa 0,0 mm W 272 3,2 km/h (1 Bft)
18.03.2014 07:20 4,7 C 90 % 1018,5 hPa 0,0 mm W 272 0,0 km/h (0 Bft)
18.03.2014 07:25 4,2 C 90 % 1018,5 hPa 0,0 mm W 272 0,0 km/h (0 Bft)
18.03.2014 07:30 5,2 C 91 % 1018,7 hPa 0,0 mm W 272 1,6 km/h (1 Bft)
18.03.2014 07:35 5,9 C 90 % 1018,6 hPa 0,0 mm W 272 1,6 km/h (1 Bft)
18.03.2014 07:40 6,4 C 87 % 1018,6 hPa 0,0 mm W 272 3,2 km/h (1 Bft)
18.03.2014 07:45 6,6 C 87 % 1018,6 hPa 0,0 mm W 272 0,0 km/h (0 Bft)
18.03.2014 07:50 6,9 C 86 % 1018,5 hPa 0,0 mm W 272 3,2 km/h (1 Bft)
18.03.2014 07:55 7,5 C 86 % 1018,6 hPa 0,0 mm W 272 3,2 km/h (1 Bft)
18.03.2014 08:00 8,1 C 84 % 1018,6 hPa 0,0 mm W 272 3,2 km/h (1 Bft)
18.03.2014 08:05 8,6 C 84 % 1018,6 hPa 0,0 mm W 272 3,2 km/h (1 Bft)
18.03.2014 08:10 8,7 C 84 % 1018,6 hPa 0,0 mm W 273 4,8 km/h (1 Bft)
18.03.2014 08:15 9,4 C 83 % 1018,6 hPa 0,0 mm W 273 3,2 km/h (1 Bft)
18.03.2014 08:20 10,0 C 82 % 1018,5 hPa 0,0 mm W 273 1,6 km/h (1 Bft)
18.03.2014 08:25 9,4 C 79 % 1018,5 hPa 0,0 mm W 273 1,6 km/h (1 Bft)
18.03.2014 08:30 10,1 C 85 % 1018,6 hPa 0,0 mm W 273 1,6 km/h (1 Bft)
18.03.2014 08:35 9,6 C 81 % 1018,4 hPa 0,0 mm W 273 1,6 km/h (1 Bft)
18.03.2014 08:40 9,5 C 83 % 1018,5 hPa 0,0 mm W-SW 246 3,2 km/h (1 Bft)
18.03.2014 08:45 9,6 C 82 % 1018,5 hPa 0,0 mm SO 146 3,2 km/h (1 Bft)
18.03.2014 08:50 9,8 C 82 % 1018,5 hPa 0,0 mm SO 146 1,6 km/h (1 Bft)
18.03.2014 08:55 9,8 C 83 % 1018,5 hPa 0,0 mm O 93 3,2 km/h (1 Bft)
18.03.2014 09:00 9,7 C 83 % 1018,5 hPa 0,0 mm O-NO 69 4,8 km/h (1 Bft)
18.03.2014 09:05 9,7 C 84 % 1018,6 hPa 0,0 mm O-NO 74 4,8 km/h (1 Bft)
18.03.2014 09:10 9,6 C 84 % 1018,5 hPa 0,0 mm O 80 8,0 km/h (2 Bft)
18.03.2014 09:15 9,6 C 85 % 1018,4 hPa 0,0 mm O 98 4,8 km/h (1 Bft)
18.03.2014 09:20 9,8 C 84 % 1018,5 hPa 0,0 mm O 98 3,2 km/h (1 Bft)
18.03.2014 09:25 10,1 C 82 % 1018,4 hPa 0,0 mm O 100 3,2 km/h (1 Bft)
18.03.2014 09:30 9,9 C 83 % 1018,3 hPa 0,0 mm O 101 4,8 km/h (1 Bft)
18.03.2014 09:35 10,1 C 83 % 1018,3 hPa 0,0 mm O 101 3,2 km/h (1 Bft)
18.03.2014 09:40 10,4 C 82 % 1018,2 hPa 0,0 mm O 101 3,2 km/h (1 Bft)
18.03.2014 09:45 10,9 C 80 % 1018,1 hPa 0,0 mm O 92 3,2 km/h (1 Bft)
18.03.2014 09:50 11,3 C 81 % 1018,1 hPa 0,0 mm O-SO 105 4,8 km/h (1 Bft)
18.03.2014 09:55 11,4 C 78 % 1018,0 hPa 0,0 mm O-SO 120 4,8 km/h (1 Bft)
18.03.2014 10:00 11,7 C 77 % 1018,0 hPa 0,0 mm SO 128 4,8 km/h (1 Bft)
18.03.2014 10:05 12,2 C 77 % 1017,8 hPa 0,0 mm O-SO 115 4,8 km/h (1 Bft)
18.03.2014 10:10 12,4 C 76 % 1017,8 hPa 0,0 mm O-SO 112 3,2 km/h (1 Bft)
18.03.2014 10:15 12,8 C 74 % 1017,8 hPa 0,0 mm O-SO 116 3,2 km/h (1 Bft)
18.03.2014 10:20 13,3 C 70 % 1017,7 hPa 0,0 mm S-SO 155 4,8 km/h (1 Bft)
18.03.2014 10:25 14,5 C 65 % 1017,7 hPa 0,0 mm S-SW 202 4,8 km/h (1 Bft)
18.03.2014 10:30 16,2 C 62 % 1017,6 hPa 0,0 mm SW 233 6,4 km/h (2 Bft)
18.03.2014 10:35 16,8 C 50 % 1017,6 hPa 0,0 mm W-SW 244 11,3 km/h (2 Bft)
18.03.2014 10:40 17,1 C 49 % 1017,5 hPa 0,0 mm W-SW 250 14,5 km/h (3 Bft)
18.03.2014 10:45 17,3 C 50 % 1017,4 hPa 0,0 mm W 261 11,3 km/h (2 Bft)
18.03.2014 10:50 17,2 C 49 % 1017,3 hPa 0,0 mm W 265 9,7 km/h (2 Bft)
18.03.2014 10:55 17,4 C 48 % 1017,4 hPa 0,0 mm W 277 11,3 km/h (2 Bft)
18.03.2014 11:00 17,5 C 48 % 1017,4 hPa 0,0 mm W 263 12,9 km/h (3 Bft)
18.03.2014 11:05 17,5 C 47 % 1017,3 hPa 0,0 mm W 261 11,3 km/h (2 Bft)
18.03.2014 11:10 17,2 C 50 % 1017,2 hPa 0,0 mm W 269 14,5 km/h (3 Bft)
18.03.2014 11:15 18,0 C 48 % 1017,2 hPa 0,0 mm W 265 6,4 km/h (2 Bft)
18.03.2014 11:20 18,1 C 43 % 1017,1 hPa 0,0 mm W 266 11,3 km/h (2 Bft)
18.03.2014 11:25 18,3 C 47 % 1017,0 hPa 0,0 mm W 267 8,0 km/h (2 Bft)
18.03.2014 11:30 18,6 C 43 % 1017,0 hPa 0,0 mm W 276 9,7 km/h (2 Bft)
18.03.2014 11:35 18,4 C 41 % 1016,9 hPa 0,0 mm W-NW 296 12,9 km/h (3 Bft)
18.03.2014 11:40 18,1 C 46 % 1016,9 hPa 0,0 mm W-NW 292 4,8 km/h (1 Bft)
18.03.2014 11:45 18,7 C 43 % 1016,8 hPa 0,0 mm W-NW 282 9,7 km/h (2 Bft)
18.03.2014 11:50 18,8 C 44 % 1016,8 hPa 0,0 mm W 277 9,7 km/h (2 Bft)
18.03.2014 11:55 19,0 C 43 % 1016,7 hPa 0,0 mm W-SW 251 9,7 km/h (2 Bft)
18.03.2014 12:00 18,9 C 41 % 1016,6 hPa 0,0 mm W 276 9,7 km/h (2 Bft)
18.03.2014 12:05 19,0 C 44 % 1016,6 hPa 0,0 mm W 280 9,7 km/h (2 Bft)
18.03.2014 12:10 19,2 C 42 % 1016,5 hPa 0,0 mm W 277 11,3 km/h (2 Bft)
18.03.2014 12:15 19,1 C 41 % 1016,4 hPa 0,0 mm SW 236 11,3 km/h (2 Bft)
18.03.2014 12:20 18,8 C 39 % 1016,4 hPa 0,0 mm W 276 14,5 km/h (3 Bft)
18.03.2014 12:25 18,9 C 40 % 1016,3 hPa 0,0 mm W 273 17,7 km/h (3 Bft)
18.03.2014 12:30 18,9 C 40 % 1016,2 hPa 0,0 mm W 265 16,1 km/h (3 Bft)
18.03.2014 12:35 18,7 C 41 % 1016,1 hPa 0,0 mm W 266 16,1 km/h (3 Bft)
18.03.2014 12:40 18,7 C 42 % 1016,1 hPa 0,0 mm W-SW 250 11,3 km/h (2 Bft)
18.03.2014 12:45 18,5 C 40 % 1015,9 hPa 0,0 mm W-NW 291 12,9 km/h (3 Bft)
18.03.2014 12:50 18,7 C 40 % 1015,9 hPa 0,0 mm W-NW 289 16,1 km/h (3 Bft)
18.03.2014 12:55 18,8 C 41 % 1015,8 hPa 0,0 mm W-SW 257 16,1 km/h (3 Bft)
18.03.2014 13:00 18,8 C 41 % 1015,8 hPa 0,0 mm W-SW 252 14,5 km/h (3 Bft)
18.03.2014 13:05 18,9 C 42 % 1015,6 hPa 0,0 mm W-NW 285 14,5 km/h (3 Bft)
18.03.2014 13:10 19,4 C 40 % 1015,6 hPa 0,0 mm N-NW 333 12,9 km/h (3 Bft)
18.03.2014 13:15 19,4 C 40 % 1015,6 hPa 0,0 mm W-NW 283 12,9 km/h (3 Bft)
18.03.2014 13:20 18,8 C 42 % 1015,5 hPa 0,0 mm W 272 12,9 km/h (3 Bft)
18.03.2014 13:25 18,8 C 42 % 1015,4 hPa 0,0 mm W 277 11,3 km/h (2 Bft)
18.03.2014 13:30 18,5 C 42 % 1015,3 hPa 0,0 mm W 263 12,9 km/h (3 Bft)
18.03.2014 13:35 18,6 C 43 % 1015,3 hPa 0,0 mm W-SW 250 11,3 km/h (2 Bft)
18.03.2014 13:40 18,5 C 43 % 1015,2 hPa 0,0 mm W-SW 255 9,7 km/h (2 Bft)
18.03.2014 13:45 18,3 C 41 % 1015,2 hPa 0,0 mm W-SW 250 11,3 km/h (2 Bft)
18.03.2014 13:50 18,2 C 43 % 1015,1 hPa 0,0 mm W 278 11,3 km/h (2 Bft)
18.03.2014 13:55 18,3 C 43 % 1015,1 hPa 0,0 mm W-SW 251 11,3 km/h (2 Bft)
18.03.2014 14:00 18,3 C 41 % 1015,1 hPa 0,0 mm W 274 12,9 km/h (3 Bft)
18.03.2014 14:05 18,3 C 40 % 1014,9 hPa 0,0 mm W 271 8,0 km/h (2 Bft)
18.03.2014 14:10 18,2 C 42 % 1014,9 hPa 0,0 mm W 266 9,7 km/h (2 Bft)
18.03.2014 14:15 18,3 C 38 % 1014,9 hPa 0,0 mm W-NW 289 14,5 km/h (3 Bft)
18.03.2014 14:20 18,4 C 37 % 1014,8 hPa 0,0 mm W 275 12,9 km/h (3 Bft)
18.03.2014 14:25 18,6 C 38 % 1014,7 hPa 0,0 mm W 269 12,9 km/h (3 Bft)
18.03.2014 14:30 18,4 C 37 % 1014,7 hPa 0,0 mm W-SW 258 12,9 km/h (3 Bft)
18.03.2014 14:35 18,4 C 36 % 1014,6 hPa 0,0 mm W 274 9,7 km/h (2 Bft)
18.03.2014 14:40 18,2 C 36 % 1014,6 hPa 0,0 mm W 273 11,3 km/h (2 Bft)
18.03.2014 14:45 18,0 C 37 % 1014,6 hPa 0,0 mm W-SW 250 16,1 km/h (3 Bft)
18.03.2014 14:50 18,1 C 37 % 1014,6 hPa 0,0 mm W 264 11,3 km/h (2 Bft)
18.03.2014 14:55 18,1 C 38 % 1014,5 hPa 0,0 mm W 263 11,3 km/h (2 Bft)
18.03.2014 15:00 18,2 C 38 % 1014,4 hPa 0,0 mm W 268 11,3 km/h (2 Bft)
18.03.2014 15:05 18,3 C 38 % 1014,4 hPa 0,0 mm W-SW 252 12,9 km/h (3 Bft)
18.03.2014 15:10 18,3 C 39 % 1014,3 hPa 0,0 mm W-NW 289 12,9 km/h (3 Bft)
18.03.2014 15:15 18,3 C 38 % 1014,3 hPa 0,0 mm W-NW 292 12,9 km/h (3 Bft)
18.03.2014 15:20 18,3 C 37 % 1014,3 hPa 0,0 mm W 259 12,9 km/h (3 Bft)
18.03.2014 15:25 18,3 C 39 % 1014,1 hPa 0,0 mm W-SW 257 9,7 km/h (2 Bft)
18.03.2014 15:30 18,4 C 39 % 1014,1 hPa 0,0 mm W 275 9,7 km/h (2 Bft)
18.03.2014 15:35 18,3 C 38 % 1014,0 hPa 0,0 mm W 271 9,7 km/h (2 Bft)
18.03.2014 15:40 18,2 C 41 % 1013,8 hPa 0,0 mm W-NW 296 6,4 km/h (2 Bft)
18.03.2014 15:45 18,2 C 40 % 1013,8 hPa 0,0 mm W 278 9,7 km/h (2 Bft)
18.03.2014 15:50 18,2 C 39 % 1013,7 hPa 0,0 mm W 274 8,0 km/h (2 Bft)
18.03.2014 15:55 18,2 C 41 % 1013,7 hPa 0,0 mm W-NW 290 6,4 km/h (2 Bft)
18.03.2014 16:00 18,2 C 40 % 1013,6 hPa 0,0 mm W-NW 292 6,4 km/h (2 Bft)
18.03.2014 16:05 18,2 C 40 % 1013,5 hPa 0,0 mm W 265 6,4 km/h (2 Bft)
18.03.2014 16:10 18,1 C 40 % 1013,5 hPa 0,0 mm W 265 6,4 km/h (2 Bft)
18.03.2014 16:15 18,2 C 39 % 1013,5 hPa 0,0 mm W 274 8,0 km/h (2 Bft)
18.03.2014 16:20 18,2 C 38 % 1013,5 hPa 0,0 mm W 277 6,4 km/h (2 Bft)
18.03.2014 16:25 18,1 C 39 % 1013,5 hPa 0,0 mm W 273 8,0 km/h (2 Bft)
18.03.2014 16:30 17,8 C 39 % 1013,5 hPa 0,0 mm W 273 8,0 km/h (2 Bft)
18.03.2014 16:35 17,8 C 40 % 1013,4 hPa 0,0 mm W 267 4,8 km/h (1 Bft)
18.03.2014 16:40 17,6 C 42 % 1013,4 hPa 0,0 mm W 271 4,8 km/h (1 Bft)
18.03.2014 16:45 17,3 C 46 % 1013,4 hPa 0,0 mm W-NW 292 3,2 km/h (1 Bft)
18.03.2014 16:50 16,9 C 51 % 1013,4 hPa 0,0 mm W-NW 292 0,0 km/h (0 Bft)
18.03.2014 16:55 16,4 C 55 % 1013,4 hPa 0,0 mm W-NW 292 1,6 km/h (1 Bft)
18.03.2014 17:00 16,4 C 51 % 1013,4 hPa 0,0 mm W-NW 292 0,0 km/h (0 Bft)
18.03.2014 17:05 16,4 C 54 % 1013,4 hPa 0,0 mm W-NW 292 1,6 km/h (1 Bft)
18.03.2014 17:10 15,8 C 57 % 1013,3 hPa 0,0 mm W-NW 292 0,0 km/h (0 Bft)
18.03.2014 17:15 15,7 C 57 % 1013,3 hPa 0,0 mm W-NW 292 1,6 km/h (1 Bft)
18.03.2014 17:20 15,6 C 57 % 1013,3 hPa 0,0 mm W-NW 292 0,0 km/h (0 Bft)
18.03.2014 17:25 15,4 C 55 % 1013,3 hPa 0,0 mm W-NW 292 1,6 km/h (1 Bft)
18.03.2014 17:30 15,3 C 58 % 1013,3 hPa 0,0 mm W-NW 292 1,6 km/h (1 Bft)
18.03.2014 17:35 15,0 C 60 % 1013,3 hPa 0,0 mm W-NW 292 0,0 km/h (0 Bft)
18.03.2014 17:40 14,7 C 63 % 1013,4 hPa 0,0 mm W-NW 292 0,0 km/h (0 Bft)
18.03.2014 17:45 14,1 C 65 % 1013,5 hPa 0,0 mm W-NW 292 1,6 km/h (1 Bft)
18.03.2014 17:50 13,9 C 65 % 1013,5 hPa 0,0 mm W-NW 292 1,6 km/h (1 Bft)
18.03.2014 17:55 13,6 C 66 % 1013,4 hPa 0,0 mm W-NW 292 0,0 km/h (0 Bft)
18.03.2014 18:00 13,4 C 66 % 1013,6 hPa 0,0 mm W-NW 292 0,0 km/h (0 Bft)
18.03.2014 18:05 12,9 C 67 % 1013,6 hPa 0,0 mm W-NW 292 1,6 km/h (1 Bft)
18.03.2014 18:10 12,8 C 68 % 1013,8 hPa 0,0 mm W-NW 292 3,2 km/h (1 Bft)
18.03.2014 18:15 12,6 C 68 % 1013,9 hPa 0,0 mm W-NW 292 3,2 km/h (1 Bft)
18.03.2014 18:20 12,4 C 68 % 1014,0 hPa 0,0 mm W-NW 292 1,6 km/h (1 Bft)
18.03.2014 18:25 12,2 C 69 % 1014,0 hPa 0,0 mm W-NW 292 1,6 km/h (1 Bft)
18.03.2014 18:30 11,7 C 71 % 1014,0 hPa 0,0 mm W-NW 292 1,6 km/h (1 Bft)
18.03.2014 18:35 11,6 C 72 % 1014,2 hPa 0,0 mm W-NW 292 0,0 km/h (0 Bft)
18.03.2014 18:40 11,3 C 73 % 1014,2 hPa 0,0 mm W-NW 292 1,6 km/h (1 Bft)
18.03.2014 18:45 11,3 C 73 % 1014,4 hPa 0,0 mm W-NW 292 1,6 km/h (1 Bft)
18.03.2014 18:50 11,4 C 73 % 1014,6 hPa 0,0 mm W-NW 292 3,2 km/h (1 Bft)
18.03.2014 18:55 11,3 C 73 % 1014,6 hPa 0,0 mm W-NW 292 3,2 km/h (1 Bft)
18.03.2014 19:00 11,3 C 73 % 1014,7 hPa 0,0 mm W-NW 292 1,6 km/h (1 Bft)
18.03.2014 19:05 11,2 C 74 % 1014,7 hPa 0,0 mm W-NW 292 1,6 km/h (1 Bft)
18.03.2014 19:10 10,8 C 74 % 1014,8 hPa 0,0 mm W-NW 292 1,6 km/h (1 Bft)
18.03.2014 19:15 10,3 C 76 % 1014,9 hPa 0,0 mm W-NW 292 3,2 km/h (1 Bft)
18.03.2014 19:20 10,1 C 77 % 1014,9 hPa 0,0 mm W-NW 292 3,2 km/h (1 Bft)
18.03.2014 19:25 10,4 C 76 % 1015,0 hPa 0,0 mm W-NW 292 3,2 km/h (1 Bft)
18.03.2014 19:30 10,8 C 75 % 1015,0 hPa 0,0 mm W 274 4,8 km/h (1 Bft)
18.03.2014 19:35 10,6 C 74 % 1015,1 hPa 0,0 mm W 273 3,2 km/h (1 Bft)
18.03.2014 19:40 10,1 C 76 % 1015,1 hPa 0,0 mm W 273 4,8 km/h (1 Bft)
18.03.2014 19:45 10,0 C 76 % 1014,9 hPa 0,0 mm W 273 3,2 km/h (1 Bft)
18.03.2014 19:50 10,1 C 76 % 1015,0 hPa 0,0 mm W 265 6,4 km/h (2 Bft)
18.03.2014 19:55 10,2 C 76 % 1015,0 hPa 0,0 mm W 269 3,2 km/h (1 Bft)
18.03.2014 20:00 9,7 C 77 % 1015,1 hPa 0,0 mm W 269 3,2 km/h (1 Bft)
18.03.2014 20:05 9,6 C 77 % 1015,1 hPa 0,0 mm W 265 4,8 km/h (1 Bft)
18.03.2014 20:10 9,7 C 77 % 1015,1 hPa 0,0 mm W 281 4,8 km/h (1 Bft)
18.03.2014 20:15 9,6 C 77 % 1015,2 hPa 0,0 mm W 281 4,8 km/h (1 Bft)
18.03.2014 20:20 8,8 C 78 % 1015,2 hPa 0,0 mm W 281 4,8 km/h (1 Bft)
18.03.2014 20:25 8,2 C 80 % 1015,2 hPa 0,0 mm W-NW 282 0,0 km/h (0 Bft)
18.03.2014 20:30 7,9 C 80 % 1015,2 hPa 0,0 mm W-NW 282 1,6 km/h (1 Bft)
18.03.2014 20:35 8,3 C 81 % 1015,2 hPa 0,0 mm W 269 6,4 km/h (2 Bft)
18.03.2014 20:40 8,7 C 80 % 1015,2 hPa 0,0 mm W 270 1,6 km/h (1 Bft)
18.03.2014 20:45 8,5 C 79 % 1015,2 hPa 0,0 mm W 270 4,8 km/h (1 Bft)
18.03.2014 20:50 8,3 C 80 % 1015,2 hPa 0,0 mm W 271 3,2 km/h (1 Bft)
18.03.2014 20:55 7,8 C 81 % 1015,3 hPa 0,0 mm W 271 3,2 km/h (1 Bft)
18.03.2014 21:00 7,7 C 82 % 1015,3 hPa 0,0 mm W 271 0,0 km/h (0 Bft)
18.03.2014 21:05 7,8 C 82 % 1015,3 hPa 0,0 mm W 271 3,2 km/h (1 Bft)
18.03.2014 21:10 7,6 C 83 % 1015,4 hPa 0,0 mm W 271 4,8 km/h (1 Bft)
18.03.2014 21:15 7,6 C 82 % 1015,4 hPa 0,0 mm W 271 1,6 km/h (1 Bft)
18.03.2014 21:20 7,6 C 82 % 1015,4 hPa 0,0 mm W 271 3,2 km/h (1 Bft)
18.03.2014 21:25 7,6 C 82 % 1015,4 hPa 0,0 mm W 271 4,8 km/h (1 Bft)
18.03.2014 21:30 7,6 C 82 % 1015,4 hPa 0,0 mm W 271 1,6 km/h (1 Bft)
18.03.2014 21:35 7,7 C 82 % 1015,5 hPa 0,0 mm W 271 3,2 km/h (1 Bft)
18.03.2014 21:40 7,7 C 82 % 1015,4 hPa 0,0 mm W 271 3,2 km/h (1 Bft)
18.03.2014 21:45 7,7 C 82 % 1015,5 hPa 0,0 mm W 278 6,4 km/h (2 Bft)
18.03.2014 21:50 7,8 C 82 % 1015,5 hPa 0,0 mm W 274 4,8 km/h (1 Bft)
18.03.2014 21:55 7,9 C 81 % 1015,6 hPa 0,0 mm W 274 3,2 km/h (1 Bft)
18.03.2014 22:00 7,3 C 82 % 1015,5 hPa 0,0 mm W 274 0,0 km/h (0 Bft)
18.03.2014 22:05 7,1 C 83 % 1015,6 hPa 0,0 mm W 274 0,0 km/h (0 Bft)
18.03.2014 22:10 6,7 C 84 % 1015,6 hPa 0,0 mm W 274 0,0 km/h (0 Bft)
18.03.2014 22:15 6,3 C 85 % 1015,6 hPa 0,0 mm W 274 0,0 km/h (0 Bft)
18.03.2014 22:20 6,3 C 86 % 1015,6 hPa 0,0 mm W 274 4,8 km/h (1 Bft)
18.03.2014 22:25 6,9 C 86 % 1015,5 hPa 0,0 mm W 274 3,2 km/h (1 Bft)
18.03.2014 22:30 7,3 C 84 % 1015,4 hPa 0,0 mm W-NW 284 4,8 km/h (1 Bft)
18.03.2014 22:35 7,6 C 84 % 1015,5 hPa 0,0 mm W-NW 284 3,2 km/h (1 Bft)
18.03.2014 22:40 7,6 C 83 % 1015,5 hPa 0,0 mm W-NW 284 4,8 km/h (1 Bft)
18.03.2014 22:45 7,7 C 83 % 1015,5 hPa 0,0 mm W 276 3,2 km/h (1 Bft)
18.03.2014 22:50 7,7 C 83 % 1015,4 hPa 0,0 mm W 281 4,8 km/h (1 Bft)
18.03.2014 22:55 7,7 C 83 % 1015,4 hPa 0,0 mm W 281 1,6 km/h (1 Bft)
18.03.2014 23:00 7,7 C 83 % 1015,4 hPa 0,0 mm W 281 4,8 km/h (1 Bft)
18.03.2014 23:05 7,8 C 83 % 1015,5 hPa 0,0 mm W 281 3,2 km/h (1 Bft)
18.03.2014 23:10 7,9 C 83 % 1015,6 hPa 0,0 mm W 274 6,4 km/h (2 Bft)
18.03.2014 23:15 7,9 C 83 % 1015,6 hPa 0,0 mm W 274 3,2 km/h (1 Bft)
18.03.2014 23:20 7,9 C 83 % 1015,5 hPa 0,0 mm W 274 4,8 km/h (1 Bft)
18.03.2014 23:25 7,9 C 83 % 1015,5 hPa 0,0 mm W 274 1,6 km/h (1 Bft)
18.03.2014 23:30 7,9 C 82 % 1015,4 hPa 0,0 mm W 274 1,6 km/h (1 Bft)
18.03.2014 23:35 8,1 C 82 % 1015,4 hPa 0,0 mm W 274 3,2 km/h (1 Bft)
18.03.2014 23:40 8,1 C 82 % 1015,4 hPa 0,0 mm W 274 1,6 km/h (1 Bft)
18.03.2014 23:45 8,1 C 83 % 1015,2 hPa 0,0 mm W 274 0,0 km/h (0 Bft)
18.03.2014 23:50 8,0 C 83 % 1015,2 hPa 0,0 mm W 274 1,6 km/h (1 Bft)
18.03.2014 23:55 8,0 C 83 % 1015,1 hPa 0,0 mm W 274 3,2 km/h (1 Bft)
_ Min-Zeit 06:05 14:35 17:10 - - - 01:20
Minimum _ 1,3 C 36 % 1013,3 hPa - - - 0,0 km/h (0 Bft)
_ Max-Zeit 13:10 04:05 00:35 00:00 - - 12:25
Maximum _ 19,4 C 92 % 1020,0 hPa 0,0 mm - - 17,7 km/h
W (3 Bft)
Durchschnitt _ 10,0 C 72 % 1016,7 hPa #0,0 mm W - 4,7 km/h (1 Bft)